Farmington, MO

3:39 PM CDT on October 19, 2019 (GMT -0500)
Farmington Regional

Weather History for KFAM - July, 2019

Change the Weather History Date:

Thursday, July 11, 2019

  Actual Average Record
Temperature  
Mean Temperature 78 °F -  
Max Temperature 84 °F 84 °F 98 °F (2011)
Min Temperature 70 °F 64 °F 57 °F (1996)
Cooling Degree Days 12    
Growing Degree Days 28 (Base 50)    
Moisture  
Dew Point 68 °F    
Average Humidity 75    
Maximum Humidity 97    
Minimum Humidity 55    
Precipitation  
Precipitation 0.00 in - - ()
Sea Level Pressure  
Sea Level Pressure 29.99 in    
Wind  
Wind Speed 5 mph (NNW)    
Max Wind Speed 9 mph    
Max Gust Speed -    
Visibility 10 miles    
Events      
Averages and records for this station are not official NWS values.
T = Trace of Precipitation, MM = Missing Value Source: NWS Daily Summary

Daily Weather History Graph

Daily Weather History Graph

Search for Another Location

Airport or City:

Astronomy

Jul. 11, 2019 Rise Set
Actual Time 5:49 AM CDT 8:25 PM CDT
Civil Twilight 5:18 AM CDT 8:55 PM CDT
Nautical Twilight 4:40 AM CDT 9:33 PM CDT
Astronomical Twilight 3:57 AM CDT 10:16 PM CDT
Moon 3:41 PM CDT (7/11) 1:55 AM CDT (7/11)
Length of Visible Light 15h 37m
Length of Day
14h 36m
Waxing Gibbous, 74% of the Moon is Illuminated
Jul 11
Waxing Gibbous
Jul 16
Full
Jul 24
Last Quarter
Jul 31
New
Aug 7
First Quarter

Hourly Weather History & Observations

Time (CDT) Temp. Heat Index Dew Point Humidity Pressure Visibility Wind Dir Wind Speed Gust Speed Precip Events Conditions
12:56 AM 73.9 °F - 71.1 °F 91% 30.00 in 10.0 mi WNW 4.6 mph - N/A   Scattered Clouds
1:56 AM 73.0 °F - 71.1 °F 93% 30.00 in 10.0 mi WNW 3.5 mph - N/A   Clear
2:56 AM 72.0 °F - 71.1 °F 97% 29.99 in 10.0 mi NW 3.5 mph - N/A   Clear
3:56 AM 73.0 °F - 71.1 °F 93% 29.98 in 10.0 mi NW 3.5 mph - N/A   Clear
4:56 AM 72.0 °F - 70.0 °F 93% 29.99 in 10.0 mi NW 4.6 mph - N/A   Clear
5:56 AM 71.1 °F - 68.0 °F 90% 30.01 in 10.0 mi NNW 4.6 mph - N/A   Clear
6:56 AM 72.0 °F - 68.0 °F 87% 30.01 in 10.0 mi NNW 5.8 mph - N/A   Partly Cloudy
7:56 AM 73.9 °F - 68.0 °F 82% 30.02 in 10.0 mi NW 5.8 mph - N/A   Clear
8:56 AM 75.9 °F - 66.9 °F 74% 30.02 in 10.0 mi NNW 8.1 mph - N/A   Clear
9:56 AM 78.1 °F - 66.9 °F 68% 30.02 in 10.0 mi NNW 6.9 mph - N/A   Clear
10:56 AM 80.1 °F 82.3 °F 66.9 °F 64% 30.01 in 10.0 mi WNW 8.1 mph - N/A   Mostly Cloudy
11:56 AM 80.1 °F 82.1 °F 66.0 °F 62% 30.01 in 10.0 mi NW 6.9 mph - N/A   Scattered Clouds
12:56 PM 80.1 °F 82.1 °F 66.0 °F 62% 30.00 in 10.0 mi Variable 3.5 mph - N/A   Overcast
1:56 PM 81.0 °F 82.7 °F 64.9 °F 58% 29.99 in 10.0 mi NW 8.1 mph - N/A   Mostly Cloudy
2:56 PM 82.0 °F 84.1 °F 66.0 °F 58% 29.97 in 10.0 mi NNW 8.1 mph - N/A   Mostly Cloudy
3:56 PM 84.0 °F 86.3 °F 66.0 °F 55% 29.96 in 10.0 mi NNW 9.2 mph - N/A   Mostly Cloudy
4:56 PM 82.0 °F 84.5 °F 66.9 °F 60% 29.95 in 10.0 mi NW 9.2 mph - N/A   Partly Cloudy
5:56 PM 82.0 °F 84.5 °F 66.9 °F 60% 29.95 in 10.0 mi North 6.9 mph - N/A   Scattered Clouds
6:56 PM 81.0 °F 83.3 °F 66.9 °F 62% 29.95 in 10.0 mi North 8.1 mph - N/A   Clear
7:56 PM 79.0 °F - 66.9 °F 66% 29.95 in 10.0 mi North 5.8 mph - N/A   Clear
8:56 PM 75.9 °F - 68.0 °F 76% 29.95 in 10.0 mi Calm Calm - N/A   Clear
9:56 PM 75.0 °F - 68.0 °F 79% 29.97 in 10.0 mi North 3.5 mph - N/A   Clear
11:56 PM 70.0 °F - 68.0 °F 93% 29.99 in 10.0 mi Calm Calm - N/A   Clear